• In Hungary
  • List of Countries
  • For 7 days
  • Water Temperature
  • Satellite Maps
  • Weather Map
  • News
  • Weather Widgets
  • user-avatar
    Login

    Hourly Weather Moquegua

    Today, 13 November, Tuesday

    Time Temperature Precipitation Wind Pressure Humidity
    00:00 +20°C° 0 mm 1 mps 642 mmHg 67%
    01:00 +20°C° 0 mm 1 mps 642 mmHg 68%
    02:00 +19°C° 0 mm 1 mps 642 mmHg 68%
    03:00 +19°C° 0 mm 1 mps 642 mmHg 69%
    04:00 +19°C° 0 mm 1 mps 642 mmHg 69%
    05:00 +19°C° 0 mm 1 mps 642 mmHg 65%
    06:00 +20°C° 0 mm 1 mps 643 mmHg 60%
    07:00 +20°C° 0 mm 2 mps 643 mmHg 56%
    08:00 +21°C° 0 mm 2 mps 643 mmHg 52%
    09:00 +22°C° 0 mm 3 mps 644 mmHg 48%
    10:00 +25°C° 0 mm 3 mps 644 mmHg 44%
    11:00 +25°C° 0 mm 4 mps 643 mmHg 44%
    12:00 +26°C° 0 mm 4 mps 643 mmHg 44%
    13:00 +26°C° 0 mm 5 mps 643 mmHg 44%
    14:00 +26°C° 0 mm 4 mps 642 mmHg 47%
    15:00 +25°C° 0 mm 4 mps 642 mmHg 49%
    16:00 +25°C° 0 mm 4 mps 642 mmHg 52%
    17:00 +22°C° 0 mm 3 mps 642 mmHg 56%
    18:00 +21°C° 0 mm 2 mps 642 mmHg 60%
    19:00 +20°C° 0 mm 2 mps 642 mmHg 65%
    20:00 +21°C° 0 mm 1 mps 642 mmHg 64%
    21:00 +21°C° 0 mm 1 mps 643 mmHg 63%
    22:00 +21°C° 0 mm 1 mps 643 mmHg 61%
    23:00 +21°C° 0 mm 1 mps 642 mmHg 61%

    Tomorrow, 14 November, Wednesday

    Time Temperature Precipitation Wind Pressure Humidity
    00:00 +20°C° 0 mm 1 mps 642 mmHg 61%
    01:00 +20°C° 0 mm 1 mps 642 mmHg 61%
    02:00 +19°C° 0 mm 1 mps 642 mmHg 61%
    03:00 +19°C° 0 mm 1 mps 641 mmHg 61%
    04:00 +19°C° 0 mm 1 mps 641 mmHg 61%
    05:00 +20°C° 0 mm 1 mps 642 mmHg 56%
    06:00 +20°C° 0 mm 1 mps 642 mmHg 51%
    07:00 +21°C° 0 mm 1 mps 643 mmHg 46%
    08:00 +23°C° 0 mm 2 mps 643 mmHg 43%
    09:00 +24°C° 0 mm 2 mps 643 mmHg 40%
    10:00 +25°C° 0 mm 3 mps 643 mmHg 36%
    11:00 +26°C° 0 mm 3 mps 643 mmHg 37%
    12:00 +26°C° 0 mm 4 mps 643 mmHg 38%
    13:00 +27°C° 0 mm 4 mps 642 mmHg 38%
    14:00 +26°C° 0 mm 4 mps 642 mmHg 43%
    15:00 +25°C° 0 mm 4 mps 641 mmHg 47%
    16:00 +25°C° 0 mm 4 mps 641 mmHg 52%
    17:00 +22°C° 0 mm 3 mps 641 mmHg 58%
    18:00 +21°C° 0 mm 2 mps 641 mmHg 64%
    19:00 +20°C° 0 mm 2 mps 641 mmHg 71%
    20:00 +21°C° 0 mm 1 mps 642 mmHg 71%
    21:00 +21°C° 0 mm 1 mps 642 mmHg 71%
    22:00 +20°C° 0 mm 1 mps 643 mmHg 71%
    23:00 +20°C° 0 mm 1 mps 642 mmHg 72%

    Day after tomorrow, 15 November, Thursday

    Time Temperature Precipitation Wind Pressure Humidity
    00:00 +20°C° 0 mm 1 mps 642 mmHg 73%
    01:00 +20°C° 0 mm 1 mps 641 mmHg 74%
    02:00 +19°C° 0 mm 1 mps 641 mmHg 75%
    03:00 +19°C° 0 mm 1 mps 641 mmHg 75%
    04:00 +17°C° 0 mm 0 mps 641 mmHg 76%
    05:00 +20°C° 0 mm 1 mps 641 mmHg 70%
    06:00 +20°C° 0 mm 1 mps 642 mmHg 65%
    07:00 +21°C° 0 mm 1 mps 642 mmHg 59%
    08:00 +23°C° 0 mm 2 mps 643 mmHg 53%
    09:00 +24°C° 0 mm 3 mps 643 mmHg 47%
    10:00 +26°C° 0 mm 3 mps 643 mmHg 41%
    11:00 +26°C° 0 mm 4 mps 643 mmHg 41%
    12:00 +27°C° 0 mm 4 mps 642 mmHg 40%
    13:00 +27°C° 0 mm 5 mps 642 mmHg 40%
    14:00 +26°C° 0 mm 4 mps 641 mmHg 43%
    15:00 +25°C° 0 mm 4 mps 641 mmHg 47%
    16:00 +25°C° 0 mm 4 mps 641 mmHg 50%
    17:00 +22°C° 0 mm 3 mps 641 mmHg 56%
    18:00 +21°C° 0 mm 2 mps 641 mmHg 62%
    19:00 +20°C° 0 mm 2 mps 642 mmHg 68%
    20:00 +21°C° 0 mm 1 mps 642 mmHg 69%
    21:00 +21°C° 0 mm 1 mps 643 mmHg 69%
    22:00 +20°C° 0 mm 1 mps 643 mmHg 70%
    23:00 +20°C° 0 mm 1 mps 643 mmHg 70%

    16 November, Friday

    Time Temperature Precipitation Wind Pressure Humidity
    00:00 +20°C° 0 mm 1 mps 642 mmHg 70%
    01:00 +20°C° 0 mm 1 mps 642 mmHg 70%
    02:00 +19°C° 0 mm 1 mps 641 mmHg 72%
    03:00 +17°C° 0 mm 0 mps 641 mmHg 74%
    04:00 +17°C° 0 mm 0 mps 641 mmHg 75%
    05:00 +20°C° 0 mm 1 mps 641 mmHg 68%
    06:00 +21°C° 0 mm 1 mps 642 mmHg 61%
    07:00 +22°C° 0 mm 1 mps 642 mmHg 54%
    08:00 +23°C° 0 mm 2 mps 643 mmHg 49%
    09:00 +25°C° 0 mm 3 mps 643 mmHg 43%
    10:00 +26°C° 0 mm 3 mps 643 mmHg 37%
    11:00 +26°C° 0 mm 4 mps 643 mmHg 37%
    12:00 +27°C° 0 mm 4 mps 642 mmHg 36%
    13:00 +27°C° 0 mm 5 mps 642 mmHg 36%
    14:00 +26°C° 0 mm 5 mps 642 mmHg 40%
    15:00 +25°C° 0 mm 4 mps 642 mmHg 45%
    16:00 +23°C° 0 mm 4 mps 641 mmHg 49%
    17:00 +22°C° 0 mm 3 mps 642 mmHg 55%
    18:00 +21°C° 0 mm 2 mps 642 mmHg 61%
    19:00 +20°C° 0 mm 2 mps 642 mmHg 68%
    20:00 +21°C° 0 mm 1 mps 643 mmHg 69%
    21:00 +21°C° 0 mm 1 mps 643 mmHg 69%
    22:00 +21°C° 0 mm 1 mps 643 mmHg 70%
    23:00 +20°C° 0 mm 1 mps 643 mmHg 71%

    17 November, Saturday

    Time Temperature Precipitation Wind Pressure Humidity
    00:00 +20°C° 0 mm 1 mps 642 mmHg 72%
    01:00 +20°C° 0 mm 1 mps 642 mmHg 72%
    02:00 +20°C° 0 mm 1 mps 641 mmHg 74%
    03:00 +17°C° 0 mm 0 mps 641 mmHg 76%
    04:00 +17°C° 0 mm 0 mps 641 mmHg 77%
    05:00 +20°C° 0 mm 1 mps 641 mmHg 71%
    06:00 +21°C° 0 mm 1 mps 642 mmHg 64%
    07:00 +22°C° 0 mm 1 mps 643 mmHg 58%
    08:00 +24°C° 0 mm 2 mps 643 mmHg 50%
    09:00 +25°C° 0 mm 3 mps 643 mmHg 42%
    10:00 +27°C° 0 mm 4 mps 643 mmHg 34%
    11:00 +27°C° 0 mm 4 mps 643 mmHg 33%
    12:00 +27°C° 0 mm 4 mps 642 mmHg 32%
    13:00 +27°C° 0 mm 5 mps 642 mmHg 32%
    14:00 +27°C° 0 mm 5 mps 642 mmHg 36%
    15:00 +26°C° 0 mm 4 mps 641 mmHg 40%
    16:00 +25°C° 0 mm 4 mps 641 mmHg 44%
    17:00 +22°C° 0 mm 3 mps 641 mmHg 51%
    18:00 +21°C° 0 mm 2 mps 642 mmHg 58%
    19:00 +21°C° 0 mm 1 mps 642 mmHg 64%
    20:00 +21°C° 0 mm 1 mps 642 mmHg 64%
    21:00 +21°C° 0 mm 1 mps 643 mmHg 64%
    22:00 +21°C° 0 mm 1 mps 643 mmHg 64%
    23:00 +21°C° 0 mm 1 mps 642 mmHg 64%

    18 November, Sunday

    Time Temperature Precipitation Wind Pressure Humidity
    00:00 +20°C° 0 mm 1 mps 642 mmHg 65%
    01:00 +18°C° 0 mm 0 mps 641 mmHg 66%
    02:00 +18°C° 0 mm 0 mps 641 mmHg 67%
    03:00 +19°C° 0 mm 1 mps 641 mmHg 68%
    04:00 +19°C° 0 mm 1 mps 640 mmHg 69%
    05:00 +20°C° 0 mm 1 mps 641 mmHg 61%
    06:00 +21°C° 0 mm 1 mps 641 mmHg 54%
    07:00 +22°C° 0 mm 1 mps 642 mmHg 47%
    08:00 +24°C° 0 mm 2 mps 642 mmHg 42%
    09:00 +25°C° 0 mm 3 mps 642 mmHg 37%
    10:00 +27°C° 0 mm 3 mps 642 mmHg 32%
    11:00 +27°C° 0 mm 4 mps 642 mmHg 32%
    12:00 +27°C° 0 mm 4 mps 641 mmHg 33%
    13:00 +28°C° 0 mm 5 mps 641 mmHg 34%
    14:00 +27°C° 0 mm 4 mps 641 mmHg 39%
    15:00 +26°C° 0 mm 4 mps 640 mmHg 44%
    16:00 +25°C° 0 mm 4 mps 640 mmHg 48%
    17:00 +24°C° 0 mm 3 mps 641 mmHg 55%
    18:00 +21°C° 0 mm 2 mps 641 mmHg 62%
    19:00 +21°C° 0 mm 1 mps 641 mmHg 68%
    20:00 +21°C° 0 mm 1 mps 642 mmHg 69%
    21:00 +21°C° 0 mm 1 mps 642 mmHg 70%
    22:00 +21°C° 0 mm 1 mps 642 mmHg 71%
    23:00 +20°C° 0 mm 1 mps 642 mmHg 72%
    Show more